This is the latest recevied weather packets stored in our database for station/object DL1DH-17. If no packets are shown the sender has not sent any weather packets the latest 10 day(s).
| Time | Temp. | Humidity | Pressure | Rain* | Wind** | Luminosity | Snow |
|---|---|---|---|---|---|---|---|
| 1777755138 | 14.44° C | 41% | 977.7 hPa | - | - | - | - |
| 1777754298 | 14.44° C | 40% | 977.8 hPa | - | - | - | - |
| 1777753458 | 15° C | 40% | 977.9 hPa | - | - | - | - |
| 1777752617 | 15° C | 41% | 978 hPa | - | - | - | - |
| 1777751777 | 15° C | 40% | 977.9 hPa | - | - | - | - |
| 1777750937 | 15.56° C | 40% | 977.9 hPa | - | - | - | - |
| 1777750097 | 15.56° C | 40% | 977.9 hPa | - | - | - | - |
| 1777749257 | 15.56° C | 41% | 977.9 hPa | - | - | - | - |
| 1777748417 | 16.11° C | 42% | 977.9 hPa | - | - | - | - |
| 1777747577 | 16.67° C | 42% | 977.8 hPa | - | - | - | - |
| 1777746737 | 17.22° C | 39% | 977.7 hPa | - | - | - | - |
| 1777745897 | 17.78° C | 38% | 977.8 hPa | - | - | - | - |
| 1777745057 | 18.89° C | 36% | 977.7 hPa | - | - | - | - |
| 1777744217 | 19.44° C | 33% | 977.6 hPa | - | - | - | - |
| 1777743376 | 20° C | 32% | 977.6 hPa | - | - | - | - |
| 1777742536 | 20.56° C | 29% | 977.7 hPa | - | - | - | - |
| 1777741696 | 20.56° C | 28% | 977.7 hPa | - | - | - | - |
| 1777740856 | 21.11° C | 29% | 977.8 hPa | - | - | - | - |
| 1777740016 | 21.11° C | 29% | 977.9 hPa | - | - | - | - |
| 1777739176 | 21.67° C | 29% | 978.1 hPa | - | - | - | - |
| 1777738336 | 21.67° C | 29% | 978.3 hPa | - | - | - | - |
| 1777737496 | 22.22° C | 30% | 978.6 hPa | - | - | - | - |
| 1777736656 | 22.22° C | 29% | 978.7 hPa | - | - | - | - |
| 1777735816 | 22.22° C | 29% | 978.7 hPa | - | - | - | - |
| 1777734976 | 22.22° C | 29% | 978.9 hPa | - | - | - | - |
* Rain since midnight (hover to see other rain measurements)
** Current wind speed in m/s (hover to see current wind gust speed)